SAS32J ESGG-ESSA

Flight info

Callsign SAS32J
Flight time N/A
Altitude 29000
Route LABAN N873 ARS T317 ELTOK
Aircraft A320/M-SDE3FGHIRWY/LB1

Departure

Time 2026-05-07 19:22
Airport Göteborg Landvetter Airport (ESGG)

Arrival

Time N/A
Airport Stockholm-Arlanda Airport (ESSA)
Time Latitude Longitude Altitude Speed Heading
2026-05-07 18:55 57.66775 12.29328 526 ft 0 kts 116°
2026-05-07 19:05 57.66779 12.29313 524 ft 2 kts 116°
2026-05-07 19:05 57.66786 12.29286 523 ft 2 kts 116°
2026-05-07 19:06 57.66793 12.29259 523 ft 2 kts 116°
2026-05-07 19:06 57.66806 12.29213 521 ft 2 kts 143°
2026-05-07 19:06 57.66821 12.29207 520 ft 0 kts 204°
2026-05-07 19:16 57.66809 12.29196 521 ft 4 kts 204°
2026-05-07 19:16 57.66775 12.29151 520 ft 9 kts 248°
2026-05-07 19:17 57.66788 12.28980 513 ft 15 kts 253°
2026-05-07 19:17 57.66692 12.28862 512 ft 18 kts 216°
2026-05-07 19:17 57.66647 12.28665 512 ft 17 kts 221°
2026-05-07 19:17 57.66542 12.28560 514 ft 17 kts 206°
2026-05-07 19:18 57.66426 12.28453 515 ft 19 kts 204°
2026-05-07 19:18 57.66304 12.28345 514 ft 21 kts 207°
2026-05-07 19:18 57.66162 12.28214 512 ft 24 kts 203°
2026-05-07 19:18 57.66003 12.28068 513 ft 26 kts 207°
2026-05-07 19:19 57.65840 12.27922 519 ft 25 kts 203°
2026-05-07 19:19 57.65679 12.27774 520 ft 26 kts 207°
2026-05-07 19:19 57.65519 12.27625 517 ft 25 kts 206°
2026-05-07 19:19 57.65356 12.27473 517 ft 27 kts 207°
2026-05-07 19:20 57.65183 12.27316 517 ft 28 kts 208°
2026-05-07 19:20 57.65016 12.27162 515 ft 27 kts 206°
2026-05-07 19:20 57.64880 12.27004 512 ft 17 kts 246°
2026-05-07 19:20 57.64937 12.26857 518 ft 14 kts 329°
2026-05-07 19:21 57.65025 12.26833 521 ft 13 kts 15°
2026-05-07 19:21 57.65113 12.26910 523 ft 26 kts 25°
2026-05-07 19:21 57.65499 12.27256 517 ft 95 kts 26°
2026-05-07 19:21 57.66254 12.27947 513 ft 144 kts 26°
2026-05-07 19:22 57.67271 12.28835 672 ft 169 kts 25°
2026-05-07 19:22 57.68320 12.29835 1317 ft 168 kts 25°
2026-05-07 19:22 57.69366 12.30814 1964 ft 167 kts 25°
2026-05-07 19:22 57.70415 12.31835 2417 ft 178 kts 32°
2026-05-07 19:23 57.71411 12.33403 2703 ft 196 kts 46°
2026-05-07 19:23 57.72344 12.35525 2955 ft 221 kts 51°
2026-05-07 19:23 57.73313 12.37823 3600 ft 228 kts 52°
2026-05-07 19:23 57.74316 12.40187 4313 ft 235 kts 52°
2026-05-07 19:24 57.75398 12.42635 4716 ft 258 kts 50°
2026-05-07 19:24 57.76618 12.45251 5428 ft 266 kts 49°
2026-05-07 19:24 57.77872 12.47869 6239 ft 271 kts 49°
2026-05-07 19:24 57.79155 12.50519 7031 ft 276 kts 48°
2026-05-07 19:25 57.80530 12.53348 7846 ft 280 kts 47°
2026-05-07 19:25 57.81768 12.55890 8588 ft 284 kts 47°
2026-05-07 19:25 57.83107 12.58634 9381 ft 287 kts 47°
2026-05-07 19:25 57.84470 12.61438 10165 ft 290 kts 47°
2026-05-07 19:26 57.85867 12.64315 10529 ft 308 kts 47°
2026-05-07 19:26 57.87374 12.67421 10684 ft 331 kts 47°
2026-05-07 19:26 57.88959 12.70694 11090 ft 343 kts 47°
2026-05-07 19:26 57.90573 12.74036 11692 ft 347 kts 47°
2026-05-07 19:27 57.92214 12.77441 12357 ft 351 kts 46°
2026-05-07 19:27 57.93866 12.80880 13006 ft 355 kts 46°
2026-05-07 19:27 57.95535 12.84353 13642 ft 359 kts 46°
2026-05-07 19:27 57.97224 12.87874 14240 ft 363 kts 46°
2026-05-07 19:28 57.98907 12.91383 14789 ft 367 kts 46°
2026-05-07 19:28 58.00643 12.95017 15356 ft 370 kts 46°
2026-05-07 19:28 58.02384 12.98674 15910 ft 374 kts 46°
2026-05-07 19:28 58.04110 13.02302 16451 ft 377 kts 46°
2026-05-07 19:29 58.05893 13.06056 17017 ft 380 kts 46°
2026-05-07 19:29 58.07652 13.09764 17567 ft 384 kts 46°
2026-05-07 19:29 58.09450 13.13556 18125 ft 388 kts 46°
2026-05-07 19:29 58.11259 13.17374 18653 ft 391 kts 46°
2026-05-07 19:30 58.13137 13.21342 19165 ft 395 kts 46°
2026-05-07 19:30 58.14982 13.25250 19680 ft 399 kts 46°
2026-05-07 19:30 58.16844 13.29203 20200 ft 402 kts 46°
2026-05-07 19:30 58.18708 13.33217 20702 ft 406 kts 46°
2026-05-07 19:31 58.20529 13.37225 21201 ft 410 kts 47°
2026-05-07 19:31 58.22386 13.41375 21672 ft 413 kts 47°
2026-05-07 19:31 58.24255 13.45569 22149 ft 416 kts 47°
2026-05-07 19:31 58.26141 13.49796 22608 ft 420 kts 47°
2026-05-07 19:32 58.27402 13.52620 22902 ft 422 kts 47°
2026-05-07 19:32 58.29943 13.58293 23504 ft 426 kts 46°
2026-05-07 19:32 58.31875 13.62602 23907 ft 429 kts 46°
2026-05-07 19:32 58.33186 13.65530 24164 ft 431 kts 46°
2026-05-07 19:33 58.35139 13.69904 24543 ft 433 kts 46°
2026-05-07 19:33 58.37099 13.74306 24915 ft 436 kts 47°
2026-05-07 19:33 58.39069 13.78742 25284 ft 437 kts 47°
2026-05-07 19:33 58.41015 13.83136 25642 ft 439 kts 46°
2026-05-07 19:34 58.42998 13.87616 25992 ft 442 kts 46°
2026-05-07 19:34 58.44989 13.92121 26332 ft 444 kts 46°
2026-05-07 19:34 58.46972 13.96625 26692 ft 446 kts 46°
2026-05-07 19:34 58.48970 14.01173 27034 ft 448 kts 46°